Bourg, LA

5:10 PM CST on January 18, 2017 (GMT -0600)
Houma-terrebonne

Weather History for KHUM - May, 2014

Change the Weather History Date:

Thursday, May 8, 2014

  Actual Average Record
Temperature  
Mean Temperature 78 °F -  
Max Temperature 86 °F 83 °F 93 °F (2003)
Min Temperature 71 °F 65 °F 46 °F (1992)
Cooling Degree Days 14    
Growing Degree Days 28 (Base 50)    
Moisture  
Dew Point 68 °F    
Average Humidity 76    
Maximum Humidity 88    
Minimum Humidity 48    
Precipitation  
Precipitation 0.00 in - - ()
Sea Level Pressure  
Sea Level Pressure 30.03 in    
Wind  
Wind Speed 9 mph (SE)    
Max Wind Speed 21 mph    
Max Gust Speed 16 mph    
Visibility 8 miles    
Events      
Averages and records for this station are not official NWS values.
T = Trace of Precipitation, MM = Missing Value Source: NWS Daily Summary

Daily Weather History Graph

Daily Weather History Graph

Search for Another Location

Airport or City:

Trip Planner

Search our weather history database for the weather conditions in past years. The results will help you decide how hot, cold, wet, or windy it might be!

Date:

Astronomy

May. 08, 2014 Rise Set
Actual Time 6:14 AM CDT 7:43 PM CDT
Civil Twilight 5:49 AM CDT 8:09 PM CDT
Nautical Twilight 5:18 AM CDT 8:40 PM CDT
Astronomical Twilight 4:46 AM CDT 9:12 PM CDT
Moon 2:11 PM CDT (5/8) 2:17 AM CDT (5/8)
Length of Visible Light 14h 20m
Length of Day
13h 29m
Waxing Gibbous, 65% of the Moon is Illuminated
May 8
Waxing Gibbous
May 14
Full
May 21
Last Quarter
May 28
New
Jun 5
First Quarter

Hourly Weather History & Observations

Time (CDT) Temp. Heat Index Dew Point Humidity Pressure Visibility Wind Dir Wind Speed Gust Speed Precip Events Conditions
12:15 AM 73.4 °F - 67.5 °F 82% 30.03 in 7.0 mi SE 8.1 mph - N/A   Unknown
12:35 AM 72.9 °F - 67.3 °F 83% 30.03 in 10.0 mi SE 6.9 mph - N/A   Unknown
12:55 AM 72.9 °F - 67.6 °F 84% 30.02 in 10.0 mi SE 6.9 mph - N/A   Unknown
1:15 AM 72.9 °F - 67.6 °F 84% 30.03 in 10.0 mi SE 6.9 mph - N/A   Unknown
1:35 AM 72.7 °F - 67.5 °F 84% 30.03 in 7.0 mi SE 6.9 mph - N/A   Unknown
1:55 AM 72.5 °F - 67.5 °F 84% 30.02 in 10.0 mi SE 5.8 mph - N/A   Unknown
2:15 AM 72.0 °F - 67.3 °F 85% 30.02 in 7.0 mi ESE 6.9 mph - N/A   Unknown
2:35 AM 71.6 °F - 67.1 °F 86% 30.02 in 7.0 mi SE 5.8 mph - N/A   Unknown
2:55 AM 71.6 °F - 67.3 °F 86% 30.02 in 7.0 mi SE 5.8 mph - N/A   Unknown
3:35 AM 71.4 °F - 67.5 °F 87% 30.02 in 7.0 mi SE 8.1 mph - N/A   Unknown
3:55 AM 71.8 °F - 67.6 °F 87% 30.02 in 7.0 mi SE 10.4 mph - N/A   Unknown
4:15 AM 72.5 °F - 67.5 °F 84% 30.02 in 10.0 mi SE 8.1 mph - N/A   Unknown
4:35 AM 72.5 °F - 67.5 °F 84% 30.02 in 7.0 mi SE 8.1 mph - N/A   Unknown
4:55 AM 72.1 °F - 67.5 °F 85% 30.03 in 7.0 mi SE 6.9 mph - N/A   Unknown
5:15 AM 72.0 °F - 67.5 °F 86% 30.03 in 10.0 mi SE 6.9 mph - N/A   Unknown
5:35 AM 72.0 °F - 67.6 °F 86% 30.03 in 7.0 mi SE 5.8 mph - N/A   Unknown
6:50 AM 71.6 °F - 68.0 °F 88% 30.05 in 7.0 mi ESE 10.4 mph - N/A   Partly Cloudy
7:50 AM 75.2 °F - 69.8 °F 83% 30.07 in 7.0 mi SSE 11.5 mph - N/A   Clear
8:48 AM 78.8 °F - 66.2 °F 65% 30.07 in 7.0 mi SE 20.7 mph - N/A   Scattered Clouds
9:50 AM 80.6 °F 82.7 °F 66.2 °F 61% 30.07 in 7.0 mi SE 13.8 mph - N/A   Scattered Clouds
10:47 AM 84.2 °F 86.6 °F 66.2 °F 55% 30.08 in 7.0 mi SSE 20.7 mph - N/A   Scattered Clouds
12:50 PM 84.2 °F 86.6 °F 66.2 °F 55% 30.07 in 7.0 mi SSE 20.7 mph - N/A   Mostly Cloudy
1:50 PM 86.0 °F 87.3 °F 64.4 °F 48% 30.05 in 7.0 mi SSE 17.3 mph - N/A   Scattered Clouds
2:50 PM 82.4 °F 84.6 °F 66.2 °F 58% 30.05 in 7.0 mi SSE 17.3 mph - N/A   Scattered Clouds
4:50 PM 82.4 °F 83.9 °F 64.4 °F 54% 30.03 in 7.0 mi SE 16.1 mph - N/A   Scattered Clouds
5:50 PM 82.4 °F 84.6 °F 66.2 °F 58% 30.03 in 7.0 mi SE 13.8 mph - N/A   Scattered Clouds
6:50 PM 78.8 °F - 66.2 °F 65% 30.02 in 7.0 mi SE 11.5 mph - N/A   Scattered Clouds
7:15 PM 78.4 °F - 67.5 °F 69% 30.02 in 7.0 mi SE 11.5 mph - N/A   Unknown
7:35 PM 78.1 °F - 68.0 °F 71% 30.02 in 7.0 mi SE 11.5 mph - N/A   Unknown
7:55 PM 77.7 °F - 68.2 °F 72% 30.02 in 10.0 mi SE 9.2 mph 16.1 mph N/A   Unknown
8:15 PM 77.4 °F - 68.5 °F 74% 30.03 in 7.0 mi SE 11.5 mph 16.1 mph N/A   Unknown
8:35 PM 77.2 °F - 68.9 °F 76% 30.03 in 10.0 mi SE 8.1 mph - N/A   Unknown
8:55 PM 77.2 °F - 69.1 °F 76% 30.04 in 10.0 mi SE 8.1 mph - N/A   Unknown
9:15 PM 77.2 °F - 69.4 °F 77% 30.03 in 7.0 mi SE 9.2 mph - N/A   Unknown
9:35 PM 77.0 °F - 69.8 °F 78% 30.03 in 7.0 mi ESE 10.4 mph - N/A   Unknown
9:55 PM 77.0 °F - 69.8 °F 78% 30.03 in 10.0 mi ESE 9.2 mph - N/A   Unknown
10:15 PM 77.0 °F - 69.8 °F 78% 30.03 in 7.0 mi ESE 9.2 mph - N/A   Unknown
10:35 PM 76.8 °F - 70.2 °F 80% 30.03 in 10.0 mi SE 8.1 mph - N/A   Unknown
10:55 PM 77.0 °F - 70.3 °F 80% 30.03 in 7.0 mi SE 9.2 mph - N/A   Unknown
11:15 PM 77.0 °F - 70.3 °F 80% 30.03 in 7.0 mi SE 10.4 mph - N/A   Unknown
11:35 PM 77.0 °F - 70.5 °F 80% 30.02 in 7.0 mi SE 8.1 mph - N/A   Unknown
11:55 PM 77.0 °F - 70.7 °F 81% 30.02 in 7.0 mi SE 11.5 mph - N/A   Unknown